Waarnemingen

Advertentie
Mijn weer
La Coruna, Spanje (8001): temperatuur & dauwpunt: 14.01.2021 23:00:00 - 20.01.2021 23:00:00 (CET)La Coruna, Spanje (8001): windsnelheid & windstoten: 14.01.2021 23:00:00 - 20.01.2021 23:00:00 (CET)La Coruna, Spanje (8001): windrichting: 14.01.2021 23:00:00 - 20.01.2021 23:00:00 (CET)La Coruna, Spanje (8001): luchtdruk: 14.01.2021 23:00:00 - 20.01.2021 23:00:00 (CET)La Coruna, Spanje (8001): zicht: 14.01.2021 23:00:00 - 20.01.2021 23:00:00 (CET)La Coruna, Spanje (8001): neerslag: 14.01.2021 23:00:00 - 20.01.2021 23:00:00 (CET)
Datum & Tijd tt [°C] td [°C] ff [km/u] ff [kn] fx [km/u] fx [kn] dd ppp [hPa] vv [km] rr [mm]
20.01.2021 23:00:00 12,1 10,7 21 11 - - WZW 1004,2 17 0,0
20.01.2021 22:00:00 12,1 10,8 24 13 - - WZW 1003,3 6 -
20.01.2021 21:00:00 12,5 10,4 24 13 - - ZW 1002,3 20 0,4
20.01.2021 20:00:00 12,8 10,0 18 10 - - WZW 1001,4 20 0,0
20.01.2021 19:00:00 12,8 10,0 21 11 - - ZW 1000,0 20 -
20.01.2021 18:00:00 13,2 10,2 18 10 - - WZW 998,9 20 0,0
20.01.2021 17:00:00 13,2 10,2 21 11 - - ZW 998,1 20 0,0
20.01.2021 16:00:00 13,0 10,7 28 15 - - ZW 997,5 16 -
20.01.2021 15:00:00 12,9 10,6 22 12 - - ZW 996,9 20 2,0
20.01.2021 14:00:00 12,9 10,8 24 13 - - WZW 996,6 6 2,0
20.01.2021 13:00:00 13,0 10,9 24 13 - - ZW 996,4 5 -
20.01.2021 12:00:00 12,7 10,6 26 14 - - ZW 996,3 9 1,0
20.01.2021 11:00:00 12,8 10,3 34 18 - - ZW 995,4 - 2,0
20.01.2021 10:00:00 13,1 9,7 18 10 - - ZZW 995,2 20 -
20.01.2021 09:00:00 12,3 9,8 11 6 - - Z 996,0 12 0,6
20.01.2021 08:00:00 12,2 9,4 18 10 - - Z 996,3 18 0,0
20.01.2021 07:00:00 11,7 9,1 13 7 - - Z 996,8 20 -
20.01.2021 06:00:00 11,6 9,0 18 10 - - Z 998,0 20 0,2
20.01.2021 05:00:00 10,8 8,6 13 7 - - ZO 999,1 8 0,4
20.01.2021 04:00:00 10,4 8,2 15 8 - - ZZO 1000,3 15 -
20.01.2021 03:00:00 10,6 8,2 18 10 - - ZZO 1001,2 14 0,2
20.01.2021 02:00:00 10,9 7,8 24 13 - - ZZO 1002,1 20 0,0
20.01.2021 01:00:00 11,2 7,7 22 12 - - ZZO 1003,7 15 -
20.01.2021 00:00:00 11,1 7,8 29 16 78 42 ZZO 1004,9 19 0,0
19.01.2021 23:00:00 10,8 7,8 26 14 - - ZZO 1005,8 10 0,0
19.01.2021 22:00:00 11,7 7,4 35 19 - - Z 1006,3 20 -
19.01.2021 21:00:00 12,3 6,8 29 16 76 41 Z 1006,9 20 0,0
19.01.2021 20:00:00 12,4 6,7 34 18 - - Z 1008,3 20 0,0
19.01.2021 19:00:00 12,4 7,1 28 15 - - Z 1009,4 20 -
19.01.2021 18:00:00 12,7 7,2 26 14 - - Z 1009,9 20 0,0
19.01.2021 17:00:00 12,5 7,2 28 15 - - Z 1010,9 20 0,0
19.01.2021 16:00:00 13,0 6,8 26 14 - - Z 1012,0 20 -
19.01.2021 15:00:00 12,7 6,3 21 11 - - Z 1013,2 20 0,0
19.01.2021 14:00:00 12,3 5,7 18 10 - - Z 1013,9 20 0,0
19.01.2021 13:00:00 12,1 5,7 26 14 - - Z 1015,8 20 -
19.01.2021 12:00:00 11,8 5,6 13 7 - - Z 1017,6 20 0,0
19.01.2021 11:00:00 11,0 5,1 18 10 - - Z 1017,7 20 0,0
19.01.2021 10:00:00 10,7 5,9 16 9 - - Z 1017,6 15 -
19.01.2021 09:00:00 10,1 5,9 13 7 - - Z 1018,5 20 0,0
19.01.2021 08:00:00 9,8 6,5 11 6 - - ZZW 1019,2 19 0,0
19.01.2021 07:00:00 9,2 6,1 9 5 - - Z 1019,5 12 -
19.01.2021 06:00:00 8,8 5,2 8 4 - - Z 1020,1 19 0,0
19.01.2021 05:00:00 8,4 5,1 5 3 - - Z 1020,7 19 0,0
19.01.2021 04:00:00 9,2 5,6 9 5 - - ZZO 1021,6 12 -
19.01.2021 03:00:00 9,3 6,7 8 4 - - ZZW 1022,1 20 0,0
19.01.2021 02:00:00 9,3 7,6 4 2 - - ZW 1022,8 20 0,0
19.01.2021 01:00:00 9,4 7,0 5 3 - - Z 1023,3 12 -
19.01.2021 00:00:00 9,5 8,1 9 5 - - Z 1023,8 17 0,0
18.01.2021 23:00:00 9,6 8,5 8 4 - - ZZO 1024,0 19 0,0
18.01.2021 22:00:00 10,2 9,0 4 2 - - ZZO 1024,6 15 -
18.01.2021 21:00:00 10,4 9,0 5 3 - - ZW 1024,8 20 0,0
18.01.2021 20:00:00 10,5 9,1 5 3 - - W 1024,9 20 0,0
18.01.2021 19:00:00 10,8 8,9 4 2 - - W 1024,7 20 -
18.01.2021 18:00:00 11,5 9,2 5 3 - - WNW 1024,7 20 0,0
18.01.2021 17:00:00 11,8 9,4 9 5 - - NNW 1024,8 20 0,0
18.01.2021 16:00:00 12,5 9,1 9 5 - - N 1025,1 20 -
18.01.2021 15:00:00 13,8 9,0 9 5 - - N 1025,8 20 0,0
18.01.2021 14:00:00 14,6 9,2 9 5 - - O 1026,6 20 0,0
18.01.2021 13:00:00 14,5 8,9 8 4 - - OZO 1027,6 22 -
18.01.2021 12:00:00 13,5 9,9 4 2 - - OZO 1028,5 20 0,0
18.01.2021 11:00:00 11,6 8,8 5 3 - - OZO 1028,6 19 0,0
18.01.2021 10:00:00 10,3 9,1 8 4 - - ZO 1028,2 22 -
18.01.2021 09:00:00 10,5 9,9 9 5 - - ZZO 1028,3 10 0,0
18.01.2021 08:00:00 11,0 10,4 5 3 - - ZO 1028,4 8 0,0
18.01.2021 07:00:00 11,1 10,3 5 3 - - O 1028,5 10 -
18.01.2021 06:00:00 11,2 10,4 4 2 - - ZO 1028,5 14 0,0
18.01.2021 05:00:00 11,3 10,7 5 3 - - NO 1029,0 9 0,0
18.01.2021 04:00:00 11,3 10,8 2 1 - - O 1029,5 6 -
18.01.2021 03:00:00 11,3 10,7 4 2 - - NO 1029,7 16 0,0
18.01.2021 02:00:00 11,4 10,8 2 1 - - ZO 1030,1 20 0,0
18.01.2021 01:00:00 11,5 11,0 4 2 - - OZO 1030,6 2,5 -
18.01.2021 00:00:00 11,5 11,0 2 1 - - ONO 1030,8 4,8 0,0
17.01.2021 23:00:00 11,6 11,0 8 4 - - ONO 1030,9 2,6 0,4
17.01.2021 22:00:00 11,8 10,7 2 1 - - ZW 1030,9 12 -
17.01.2021 21:00:00 12,0 11,1 5 3 - - W 1031,1 20 0,0
17.01.2021 20:00:00 12,3 11,4 5 3 - - NW 1031,3 2,3 0,0
17.01.2021 19:00:00 12,7 11,4 4 2 - - W 1031,2 20 -
17.01.2021 18:00:00 13,3 11,2 8 4 - - W 1031,1 20 0,0
17.01.2021 17:00:00 13,8 10,4 9 5 - - WNW 1030,8 20 0,0
17.01.2021 16:00:00 14,1 10,5 8 4 - - W 1030,7 20 -
17.01.2021 15:00:00 14,0 11,0 11 6 - - W 1030,9 20 0,0
17.01.2021 14:00:00 13,4 10,9 9 5 - - W 1031,6 20 0,0
17.01.2021 13:00:00 13,2 10,9 5 3 - - ZZW 1032,3 8 -
17.01.2021 12:00:00 12,7 10,6 9 5 - - ZW 1032,8 20 0,0
17.01.2021 11:00:00 12,1 10,5 8 4 - - ZZW 1032,3 20 0,0
17.01.2021 10:00:00 11,7 10,8 13 7 - - WZW 1031,7 3,0 -
17.01.2021 09:00:00 11,7 9,6 11 6 - - ZW 1031,2 20 0,0
17.01.2021 08:00:00 11,8 9,5 8 4 - - WZW 1031,1 20 0,0
17.01.2021 07:00:00 11,5 9,2 8 4 - - ZW 1030,7 15 -
17.01.2021 06:00:00 11,0 9,3 9 5 - - ZZW 1030,6 20 0,0
17.01.2021 05:00:00 10,3 8,9 9 5 - - Z 1030,9 20 0,0
17.01.2021 04:00:00 10,4 9,2 9 5 - - ZZO 1031,0 15 -
17.01.2021 03:00:00 10,6 9,2 11 6 - - Z 1031,0 20 0,0
17.01.2021 02:00:00 11,0 9,3 4 2 - - Z 1031,3 20 0,0
17.01.2021 01:00:00 11,1 9,4 9 5 - - Z 1031,2 15 -
17.01.2021 00:00:00 11,3 9,7 8 4 - - Z 1031,6 20 0,0
16.01.2021 23:00:00 11,3 9,9 8 4 - - ZZW 1031,7 18 0,0
16.01.2021 22:00:00 11,4 10,0 11 6 - - Z 1031,3 12 -
16.01.2021 21:00:00 11,5 9,9 8 4 - - ZW 1031,6 17 0,0
16.01.2021 20:00:00 11,6 10,2 8 4 - - ZW 1031,4 16 0,0
16.01.2021 19:00:00 11,8 9,9 5 3 - - Z 1031,1 18 -
16.01.2021 18:00:00 12,0 9,7 4 2 - - W 1030,8 20 0,0
16.01.2021 17:00:00 12,2 9,6 9 5 - - WNW 1030,5 20 0,0
16.01.2021 16:00:00 12,1 8,8 5 3 - - NW 1030,4 20 -
16.01.2021 15:00:00 12,9 7,8 4 2 - - NO 1030,5 20 0,0
16.01.2021 14:00:00 12,6 6,2 5 3 - - ONO 1030,8 20 0,0
16.01.2021 13:00:00 12,5 6,3 5 3 - - ZO 1031,2 25 -
16.01.2021 12:00:00 9,8 5,0 4 2 - - ZZO 1031,8 20 0,0
16.01.2021 11:00:00 5,5 2,3 5 3 - - ZZO 1031,6 20 0,0
16.01.2021 10:00:00 3,7 0,7 5 3 - - ZZO 1031,3 25 -
16.01.2021 09:00:00 3,1 0,2 5 3 - - ZZO 1031,3 20 0,0
16.01.2021 08:00:00 3,3 0,5 5 3 - - ZZO 1031,0 20 0,0
16.01.2021 07:00:00 3,4 0,8 5 3 - - ZZO 1031,0 18 -
16.01.2021 06:00:00 3,4 1,4 5 3 - - ZZO 1031,1 20 0,0
16.01.2021 05:00:00 3,6 1,3 5 3 - - ZZO 1031,1 20 0,0
16.01.2021 04:00:00 4,0 1,7 11 6 - - ZZO 1031,1 15 -
16.01.2021 03:00:00 4,4 2,7 13 7 - - ZZO 1031,0 17 0,0
16.01.2021 02:00:00 4,9 2,8 11 6 - - ZZO 1031,6 19 0,0
16.01.2021 01:00:00 5,4 3,1 5 3 - - ZO 1032,0 15 -
16.01.2021 00:00:00 6,2 4,4 5 3 - - ZZO 1031,6 14 0,0
15.01.2021 23:00:00 6,9 4,9 11 6 - - ZZO 1031,2 18 0,0
15.01.2021 22:00:00 7,9 4,8 11 6 - - ZZO 1031,3 20 -
15.01.2021 21:00:00 8,9 5,5 8 4 - - ZO 1031,5 20 0,0
15.01.2021 20:00:00 9,6 7,7 4 2 - - ONO 1031,3 17 0,0
15.01.2021 19:00:00 10,1 5,9 2 1 - - ONO 1031,1 20 -
15.01.2021 18:00:00 10,9 6,8 8 4 - - ONO 1030,7 20 0,0
15.01.2021 17:00:00 11,8 5,6 5 3 - - OZO 1030,2 20 0,0
15.01.2021 16:00:00 12,5 5,4 5 3 - - ZO 1030,7 20 -
15.01.2021 15:00:00 12,8 7,2 5 3 - - OZO 1030,9 20 0,0
15.01.2021 14:00:00 12,3 7,8 5 3 - - OZO 1031,6 20 0,0
15.01.2021 13:00:00 11,6 8,1 8 4 - - ZO 1032,5 20 -
15.01.2021 12:00:00 10,2 7,4 8 4 - - ZZO 1033,0 20 0,0
15.01.2021 11:00:00 8,2 6,8 8 4 - - ZO 1032,7 19 0,0
15.01.2021 10:00:00 7,3 6,4 8 4 - - ZO 1032,3 20 -
15.01.2021 09:00:00 7,5 6,6 5 3 - - OZO 1031,9 19 0,0
15.01.2021 08:00:00 8,0 7,6 9 5 - - ZZO 1031,6 15 0,0
15.01.2021 07:00:00 8,1 7,8 13 7 - - ZZO 1030,9 2,0 -
15.01.2021 06:00:00 8,4 8,0 5 3 - - ZZO 1031,7 0,4 0,0
15.01.2021 05:00:00 9,3 8,5 5 3 - - ZZO 1031,4 - 0,0
15.01.2021 04:00:00 10,0 9,4 5 3 - - ZO 1031,6 10 -
15.01.2021 03:00:00 10,1 9,3 8 4 - - ZO 1031,5 7 0,0
15.01.2021 02:00:00 10,4 9,6 4 2 - - O 1032,0 7 0,0
15.01.2021 01:00:00 10,5 9,7 5 3 - - ZO 1032,1 10 -
15.01.2021 00:00:00 10,8 10,0 2 1 - - ZZW 1031,9 7 0,2
14.01.2021 23:00:00 10,8 10,0 4 2 - - ZO 1031,7 5 0,2

tt = temperatuur
td = dauwpunt
ff = windsnelheid
fx = windstoten
dd = windrichting
ppp = luchtdruk
vv = zicht
rr = neerslag

Weerstations in de omgeving